1499252400.46,18570,17.31,74356.0,11.17,-7.15,-10.15,0,*76
1499252401.71,18571,17.31,74358.5,11.19,-8.25,-11.51,0,*74
1499252403.0,18572,17.31,74358.3,11.19,-8.11,-11.51,0,*70
1499252404.24,18573,17.31,74358.5,11.21,-6.97,-10.19,0,*77
1499252405.5,18574,17.31,74356.3,11.23,-6.13,-9.49,0,*43
1499252406.72,18575,17.31,74356.3,11.29,-5.97,-9.41,0,*4F
1499252407.96,18576,17.31,74356.0,11.29,-6.85,-10.41,0,*74
1499252409.22,18577,17.31,74358.8,11.31,-6.93,-10.35,0,*78
1499252410.45,18578,17.31,74358.5,11.39,-8.75,-12.61,0,*7A
1499252411.67,18579,17.31,74356.5,11.35,-12.25,-16.59,0,*46
1499252412.96,18580,17.31,74356.3,11.31,-13.29,-17.55,0,*44
1499252414.22,18581,17.31,74360.0,11.29,-13.01,-17.45,0,*47
1499252415.43,18582,17.31,74358.0,11.25,-12.25,-16.97,0,*41
1499252416.69,18583,17.31,74362.5,11.23,-12.39,-17.21,0,*47
1499252417.96,18584,17.31,74358.8,11.19,-11.63,-16.37,0,*43
1499252419.19,18585,17.31,74358.8,11.19,-11.11,-15.67,0,*41
1499252420.48,18586,17.31,74360.5,11.19,-10.41,-14.93,0,*4C
1499252421.73,18587,17.31,74362.5,11.19,-10.35,-14.65,0,*47
1499252422.97,18588,17.31,74362.8,11.19,-10.23,-14.29,0,*47
1499252424.23,18589,17.31,74356.5,11.21,-10.63,-14.55,0,*42
1499252425.49,18590,17.31,74358.5,11.23,-10.89,-14.51,0,*48
1499252426.75,18591,17.31,74362.5,11.21,-10.79,-13.87,0,*48
1499252427.98,18592,17.31,74362.3,11.21,-9.53,-12.25,0,*72
1499252429.22,18593,17.31,74358.8,11.23,-12.21,-14.37,0,*4B
1499252430.49,18594,17.31,74358.3,11.21,-13.87,-16.09,0,*4C
1499252431.73,18595,17.31,74360.3,11.17,-14.93,-17.35,0,*44
1499252432.96,18596,17.31,74358.8,11.13,-15.29,-17.17,0,*43
1499252434.23,18597,17.31,74358.8,11.07,-15.67,-17.45,0,*4A
1499252435.5,18598,17.31,74358.0,11.03,-14.51,-15.95,0,*4A
1499252436.72,18599,17.31,74358.0,11.01,-15.01,-16.59,0,*4E
1499252437.95,18600,17.31,74358.5,10.93,-14.97,-16.75,0,*47
1499252439.13,18601,17.31,74356.8,10.89,-14.69,-16.45,0,*4F
1499252440.33,18602,17.31,74356.8,10.85,-14.23,-15.99,0,*4C
1499252441.55,18603,17.31,74358.0,10.77,-14.33,-16.31,0,*40
1499252442.8,18604,17.31,74358.5,10.73,-13.87,-16.13,0,*4B
1499252444.01,18605,17.31,74358.5,10.69,-12.97,-15.53,0,*46
1499252445.24,18606,17.31,74354.8,10.63,-12.61,-15.53,0,*46
1499252446.46,18607,17.31,74352.8,10.59,-11.45,-14.65,0,*4F
1499252447.68,18608,17.31,74354.3,10.57,-9.79,-13.23,0,*7D
1499252448.92,18609,17.31,74358.8,10.55,-8.85,-12.71,0,*7A
1499252450.14,18610,17.31,74356.3,10.55,-8.17,-12.15,0,*7B
1499252451.34,18611,17.31,74362.5,10.55,-8.55,-12.89,0,*79
1499252452.58,18612,17.31,74362.3,10.53,-9.57,-14.37,0,*7C
1499252453.81,18613,17.31,74362.5,10.51,-11.37,-16.83,0,*4D
1499252455.02,18614,17.31,74366.0,10.47,-11.41,-17.49,0,*4B
1499252456.25,18615,17.31,74360.5,10.41,-11.45,-17.83,0,*4E
1499252457.52,18616,17.31,74360.5,10.39,-11.93,-18.35,0,*4B
1499252458.75,18617,17.31,74358.3,10.35,-12.97,-19.47,0,*45
1499252459.95,18618,17.31,74356.8,10.33,-13.11,-19.17,0,*46
1499252461.18,18619,17.31,74356.8,10.29,-13.83,-19.75,0,*43
1499252462.47,18620,17.31,74354.5,10.23,-14.47,-19.85,0,*43
1499252463.7,18621,17.31,74356.0,10.21,-14.75,-19.95,0,*40
1499252464.98,18622,17.31,74350.0,10.15,-15.85,-21.03,0,*4E
1499252466.23,18623,17.31,74348.0,10.11,-14.69,-19.41,0,*45
1499252467.46,18624,17.31,74346.0,10.11,-14.69,-19.37,0,*43
1499252468.71,18625,17.31,74358.0,10.07,-14.83,-19.07,0,*42
1499252469.97,18626,17.31,74356.5,10.07,-11.63,-15.67,0,*40
1499252471.22,18627,17.31,74358.3,10.09,-10.67,-14.43,0,*4D
1499252472.45,18628,17.31,74348.3,10.11,-9.27,-12.93,0,*7C
1499252473.68,18629,17.31,74348.0,10.17,-8.25,-11.63,0,*74
1499252474.9,18630,17.31,74346.8,10.25,-7.31,-10.49,0,*7E
1499252476.19,18631,17.31,74350.3,10.31,-7.57,-10.67,0,*76
1499252477.39,18632,17.31,74348.5,10.39,-8.37,-11.15,0,*70
1499252478.63,18633,17.31,74348.0,10.45,-6.85,-9.61,0,*47
1499252479.85,18634,17.31,74348.8,10.53,-6.47,-9.01,0,*4F
1499252481.07,18635,17.31,74352.3,10.59,-7.31,-9.75,0,*47
1499252482.28,18636,17.31,74356.8,10.67,-7.91,-10.23,0,*78
1499252483.53,18637,17.31,74354.3,10.71,-9.05,-11.29,0,*76
1499252484.79,18638,17.31,74352.3,10.75,-9.71,-11.63,0,*70
1499252485.98,18639,17.31,74354.3,10.81,-8.17,-9.79,0,*49
1499252487.16,18640,17.31,74350.0,10.89,-6.89,-8.59,0,*45
1499252488.37,18641,17.31,74348.5,10.95,-7.19,-8.67,0,*4C
1499252489.57,18642,17.31,74348.8,11.01,-8.17,-9.67,0,*43
1499252490.8,18643,17.31,74348.8,11.05,-7.95,-9.19,0,*4A
1499252492.02,18644,17.31,74348.5,11.15,-8.55,-9.89,0,*46
1499252493.29,18645,17.31,74352.0,11.19,-9.27,-10.67,0,*77
1499252494.52,18646,17.31,74350.5,11.23,-7.83,-9.05,0,*41
1499252495.77,18647,17.31,74350.0,11.31,-6.93,-8.17,0,*41
1499252497.03,18648,17.31,74350.3,11.37,-7.57,-8.85,0,*4A
1499252498.25,18649,17.31,74352.8,11.41,-7.19,-8.33,0,*4D
1499252499.51,18650,17.31,74350.5,11.49,-7.73,-8.81,0,*48
1499252500.73,18651,17.31,74348.0,11.57,-8.17,-9.23,0,*42
1499252501.95,18652,17.31,74352.0,11.59,-8.07,-8.93,0,*44
1499252503.2,18653,17.31,74354.0,11.67,-8.11,-9.19,0,*4C
1499252504.44,18654,17.31,74354.0,11.71,-7.27,-8.25,0,*48
1499252505.69,18655,17.31,74356.3,11.79,-7.31,-8.37,0,*45
1499252506.9,18656,17.38,74358.0,11.87,-7.53,-8.55,0,*47
1499252508.13,18657,17.31,74358.3,11.91,-8.89,-10.05,0,*75
1499252509.36,18658,17.31,74356.0,11.97,-8.89,-10.05,0,*7C
1499252510.56,18659,17.31,74356.8,11.99,-8.55,-9.79,0,*41
1499252511.82,18660,17.31,74356.3,12.05,-7.77,-8.81,0,*44
1499252513.03,18661,17.31,74356.5,12.11,-7.35,-8.29,0,*44
1499252514.26,18662,17.31,74358.0,12.17,-6.73,-7.83,0,*4D
1499252515.47,18663,17.38,74358.8,12.23,-6.39,-7.73,0,*4A
1499252516.7,18664,17.31,74356.5,12.31,-6.31,-7.61,0,*45
1499252517.92,18665,17.31,74358.3,12.35,-6.35,-7.73,0,*47
1499252519.13,18666,17.31,74354.5,12.43,-7.01,-8.55,0,*48
1499252520.33,18667,17.31,74354.8,12.51,-7.23,-8.93,0,*40
1499252521.54,18668,17.31,74356.0,12.53,-6.69,-8.29,0,*43
1499252522.78,18669,17.31,74356.3,12.59,-5.31,-7.01,0,*43
1499252524.0,18670,17.31,74358.8,12.65,-5.11,-6.89,0,*47
1499252525.25,18671,17.31,74356.3,12.73,-5.27,-6.97,0,*4B
1499252526.49,18672,17.31,74356.3,12.79,-5.07,-6.85,0,*43
1499252527.73,18673,17.31,74360.5,12.85,-5.77,-7.43,0,*4D
1499252528.98,18674,17.31,74356.5,12.91,-6.35,-8.03,0,*41
1499252530.2,18675,17.31,74358.8,12.97,-6.85,-8.41,0,*4B
1499252531.45,18676,17.38,74364.8,13.01,-7.83,-9.45,0,*44
1499252532.7,18677,17.31,74358.3,13.05,-7.65,-8.97,0,*47
1499252533.97,18678,17.31,74364.8,13.09,-6.93,-7.99,0,*4D
1499252535.19,18679,17.38,74366.3,13.11,-6.89,-7.91,0,*46
1499252536.43,18680,17.38,74364.8,13.17,-6.55,-7.35,0,*49
1499252537.65,18681,17.31,74362.0,13.23,-6.19,-6.77,0,*40
1499252538.87,18682,17.31,74364.5,13.29,-6.89,-7.31,0,*43
1499252540.11,18683,17.31,74364.8,13.33,-7.31,-7.65,0,*4A
1499252541.33,18684,17.31,74366.3,13.41,-8.41,-8.81,0,*45
1499252542.55,18685,17.38,74368.0,13.41,-9.31,-9.45,0,*4B
1499252543.79,18686,17.31,74366.5,13.45,-9.53,-9.61,0,*4E
1499252545.01,18687,17.31,74360.8,13.47,-10.05,-10.19,0,*41
1499252546.23,18688,17.31,74360.5,13.49,-10.19,-10.19,0,*4D
1499252547.52,18689,17.31,74362.5,13.47,-10.67,-10.67,0,*42
1499252548.73,18690,17.31,74364.0,13.51,-9.67,-9.75,0,*4E
1499252549.93,18691,17.31,74364.0,13.53,-9.71,-9.75,0,*4A
1499252551.17,18692,17.38,74366.3,13.53,-10.41,-10.27,0,*4D
1499252552.41,18693,17.31,74366.8,13.57,-10.35,-10.27,0,*4B
1499252553.65,18694,17.31,74362.3,13.55,-9.83,-9.79,0,*48
1499252554.85,18695,17.31,74366.5,13.63,-8.41,-8.37,0,*48
1499252556.1,18696,17.31,74364.3,13.65,-8.55,-8.51,0,*48
1499252557.3,18697,17.31,74366.3,13.67,-8.45,-8.45,0,*4F
1499252558.49,18698,17.38,74366.0,13.71,-8.55,-8.59,0,*4B
1499252559.72,18699,17.38,74368.3,13.73,-9.05,-9.05,0,*44
1499252560.94,18700,17.31,74366.5,13.75,-9.19,-9.15,0,*4F
1499252562.16,18701,17.31,74362.5,13.81,-8.55,-8.45,0,*48
1499252563.35,18702,17.31,74362.3,13.87,-8.75,-8.63,0,*4B
1499252564.57,18703,17.38,74366.0,13.87,-9.71,-9.45,0,*4A
1499252565.84,18704,17.31,74362.3,13.91,-9.53,-9.15,0,*4F
1499252567.07,18705,17.31,74362.3,13.91,-10.19,-9.67,0,*7D
1499252568.29,18706,17.31,74360.5,13.91,-9.75,-8.97,0,*42
1499252569.52,18707,17.38,74364.5,13.95,-9.57,-8.71,0,*4F
1499252570.76,18708,17.31,74360.8,13.95,-9.53,-8.37,0,*46
1499252571.98,18709,17.31,74360.5,13.99,-9.71,-8.41,0,*4A
1499252573.23,18710,17.31,74360.8,14.01,-10.75,-9.37,0,*78
1499252574.46,18711,17.31,74360.3,14.01,-11.15,-9.41,0,*7F
1499252575.71,18712,17.31,74362.3,14.01,-11.59,-9.61,0,*76
1499252576.98,18713,17.38,74362.0,14.03,-10.63,-8.51,0,*7F
1499252578.19,18714,17.31,74362.5,14.05,-9.53,-7.19,0,*46
1499252579.41,18715,17.31,74362.3,14.11,-9.27,-6.81,0,*41
1499252580.66,18716,17.31,74360.3,14.15,-9.61,-6.81,0,*44
1499252581.87,18717,17.31,74360.0,14.19,-10.05,-7.23,0,*7A
1499252583.09,18718,17.31,74362.0,14.17,-10.85,-7.69,0,*7D
1499252584.34,18719,17.31,74362.0,14.21,-11.51,-8.21,0,*72
1499252585.6,18720,17.31,74362.0,14.21,-10.93,-7.61,0,*7C
1499252586.86,18721,17.31,74362.8,14.23,-11.29,-7.57,0,*7A
1499252588.08,18722,17.31,74362.0,14.23,-11.41,-7.57,0,*77
1499252589.31,18723,17.31,74360.5,14.23,-12.03,-7.99,0,*71
1499252590.55,18724,17.31,74366.3,14.23,-11.81,-7.57,0,*7D
1499252591.82,18725,17.31,74366.8,14.25,-11.37,-7.05,0,*70
1499252593.07,18726,17.31,74362.8,14.27,-11.37,-6.93,0,*7F
1499252594.3,18727,17.31,74362.8,14.25,-11.15,-6.73,0,*72
1499252595.5,18728,17.31,74364.8,14.31,-12.43,-7.83,0,*76
1499252596.7,18729,17.31,74360.8,14.27,-12.93,-8.25,0,*7E
1499252597.95,18730,17.31,74362.8,14.25,-12.93,-8.11,0,*73
1499252599.2,18731,17.31,74362.3,14.25,-12.39,-7.61,0,*7A
1499252600.48,18732,17.38,74362.8,14.25,-12.61,-7.73,0,*77
1499252601.7,18733,17.31,74360.0,14.23,-12.97,-8.11,0,*72
1499252602.94,18734,17.38,74360.5,14.21,-12.03,-7.11,0,*75
1499252604.19,18735,17.31,74360.3,14.21,-11.59,-6.59,0,*75
1499252605.42,18736,17.38,74362.5,14.21,-11.15,-6.09,0,*7B
1499252606.65,18737,17.31,74358.0,14.23,-10.85,-5.89,0,*7B
1499252607.87,18738,17.31,74362.0,14.23,-11.19,-6.19,0,*7A
1499252609.07,18739,17.31,74360.0,14.23,-11.15,-6.31,0,*7D
1499252610.32,18740,17.38,74362.5,14.21,-10.53,-5.69,0,*7C
1499252611.55,18741,17.31,74358.5,14.21,-10.97,-6.09,0,*70
1499252612.82,18742,17.31,74356.0,14.21,-9.83,-5.11,0,*44
1499252614.04,18743,17.31,74358.0,14.25,-10.09,-5.47,0,*78
1499252615.23,18744,17.31,74358.3,14.23,-10.45,-5.97,0,*7C
1499252616.48,18745,17.38,74358.8,14.23,-9.53,-5.23,0,*4D
1499252617.71,18746,17.31,74358.8,14.21,-10.23,-6.05,0,*74
1499252618.95,18747,17.31,74356.0,14.21,-9.53,-5.43,0,*4B
1499252620.15,18748,17.38,74356.3,14.23,-8.37,-4.57,0,*41
1499252621.36,18749,17.38,74356.8,14.23,-7.77,-4.17,0,*4F
1499252622.56,18750,17.31,74354.8,14.27,-7.19,-3.75,0,*48
1499252623.78,18751,17.31,74354.0,14.27,-7.27,-3.87,0,*49
1499252625.0,18752,17.31,74356.5,14.33,-5.39,-2.15,0,*48
1499252626.19,18753,17.31,74356.3,14.35,-4.37,-1.33,0,*47
1499252627.43,18754,17.38,74356.3,14.41,-4.01,-1.33,0,*46
1499252628.62,18755,17.31,74356.3,14.43,-3.35,-0.81,0,*7D
1499252629.85,18756,17.31,74358.0,14.47,-3.75,-1.47,0,*45
1499252631.06,18757,17.38,74356.3,14.55,-4.49,-2.35,0,*49
1499252632.29,18758,17.31,74356.8,14.57,-3.63,-1.75,0,*4C
1499252633.48,18759,17.31,74356.5,14.61,-3.23,-1.59,0,*42
1499252634.75,18760,17.31,74356.3,14.67,-3.43,-1.99,0,*44
1499252635.98,18761,17.38,74358.5,14.69,-3.75,-2.51,0,*49
1499252637.19,18762,17.31,74356.0,14.71,-2.15,-1.25,0,*44
1499252638.44,18763,17.31,74358.3,14.79,-1.99,-1.25,0,*4A
1499252639.63,18764,17.31,74356.5,14.85,-1.33,-0.73,0,*7C
1499252640.82,18765,17.31,74356.5,14.89,-1.51,-1.25,0,*47
1499252642.02,18766,17.38,74360.3,14.93,-1.79,-1.71,0,*44
1499252643.26,18767,17.31,74356.5,14.99,-1.39,-1.51,0,*49
1499252644.49,18768,17.31,74356.3,15.03,-1.25,-1.75,0,*4F
1499252645.72,18769,17.31,74356.3,15.11,-1.21,-1.71,0,*4D
1499252646.96,18770,17.31,74358.3,15.15,-0.97,-1.67,0,*7A
1499252648.18,18771,17.31,74356.0,15.21,-0.77,-1.51,0,*77
1499252649.42,18772,17.31,74356.5,15.27,-0.85,-1.83,0,*70
1499252650.67,18773,17.31,74358.8,15.29,-1.05,-2.39,0,*44
1499252651.88,18774,17.31,74358.3,15.37,-2.83,-4.61,0,*4A
1499252653.09,18775,17.31,74358.0,15.35,-4.25,-6.31,0,*44
1499252654.28,18776,17.31,74360.5,15.35,-2.43,-4.45,0,*40
1499252655.53,18777,17.31,74360.5,15.37,-1.47,-3.67,0,*43
1499252656.75,18778,17.38,74360.0,15.39,-2.03,-4.61,0,*40
1499252658.02,18779,17.31,74360.8,15.45,-1.95,-4.73,0,*45
1499252659.27,18780,17.31,74360.8,15.47,-2.11,-5.23,0,*4A
1499252660.47,18781,17.31,74360.3,15.49,-0.93,-4.17,0,*7B
1499252661.69,18782,17.31,74362.8,15.53,-1.01,-4.41,0,*4A
1499252662.91,18783,17.31,74362.5,15.57,-0.37,-4.01,0,*7F
1499252664.12,18784,17.31,74360.5,15.61,-0.15,-4.01,0,*7D
1499252665.3,18785,17.38,74360.8,15.69,-0.11,-3.87,0,*79
1499252666.52,18786,17.38,74364.3,15.69,-1.39,-5.39,0,*42
1499252667.76,18787,17.31,74360.3,15.75,-1.83,-6.05,0,*43
1499252669.0,18788,17.31,74362.0,15.77,-0.97,-5.23,0,*7D
1499252670.24,18789,17.31,74360.8,15.79,-0.77,-5.11,0,*7D
1499252671.45,18790,17.38,74360.3,15.83,0.33,-3.67,0,*5A
1499252672.66,18791,17.31,74360.0,15.91,0.37,-3.63,0,*58
1499252673.88,18792,17.31,74356.8,15.95,0.25,-3.51,0,*5D
1499252675.12,18793,17.31,74356.5,16.01,-1.01,-4.57,0,*49
1499252676.3,18794,17.38,74362.3,16.03,-0.81,-4.05,0,*72
1499252677.52,18795,17.38,74360.0,16.07,-1.83,-4.99,0,*41
1499252678.73,18796,17.38,74362.3,16.17,-1.59,-4.17,0,*42
1499252679.94,18797,17.31,74358.0,16.19,-1.21,-3.35,0,*45
1499252681.17,18798,17.31,74356.0,16.21,-1.79,-3.67,0,*4B
1499252682.37,18799,17.31,74358.8,16.27,-1.79,-3.31,0,*4F
1499252683.59,18800,17.38,74358.8,16.33,-2.27,-3.27,0,*4A
1499252684.86,18801,17.31,74356.3,16.41,-2.71,-3.47,0,*4B
1499252686.1,18802,17.31,74358.5,16.41,-2.15,-2.59,0,*44
1499252687.33,18803,17.38,74356.5,16.45,-2.75,-2.87,0,*44
1499252688.53,18804,17.31,74358.8,16.49,-3.35,-3.07,0,*43
1499252689.74,18805,17.38,74358.8,16.53,-2.67,-2.15,0,*4D
1499252690.99,18806,17.38,74358.8,16.59,-2.51,-1.63,0,*43
1499252692.25,18807,17.38,74358.0,16.63,-2.03,-0.93,0,*72
1499252693.47,18808,17.38,74360.8,16.67,-1.51,-0.11,0,*77
1499252694.68,18809,17.38,74362.3,16.75,-1.51,0.09,0,*61
1499252695.91,18810,17.38,74358.3,16.77,-1.71,0.13,0,*52
1499252697.17,18811,17.31,74358.5,16.85,-1.87,0.33,0,*55
1499252698.4,18812,17.38,74358.0,16.89,-1.59,0.87,0,*56
1499252699.63,18813,17.38,74362.0,16.95,-1.91,0.63,0,*54
1499252700.88,18814,17.38,74362.5,16.97,-2.67,0.13,0,*5C
1499252702.11,18815,17.38,74360.8,17.01,-2.83,0.29,0,*50
1499252703.34,18816,17.38,74358.8,17.07,-2.55,0.83,0,*5E
1499252704.58,18817,17.38,74360.8,17.11,-1.35,2.27,0,*61
1499252705.82,18818,17.38,74362.3,17.15,-1.25,2.55,0,*6E
1499252707.06,18819,17.38,74362.3,17.23,-1.33,2.73,0,*69
1499252708.27,18820,17.38,74360.5,17.29,-0.77,3.37,0,*59
1499252709.46,18821,17.31,74358.0,17.33,-0.19,4.37,0,*5C
1499252710.67,18822,17.31,74360.5,17.37,-1.21,3.53,0,*64
1499252711.9,18823,17.38,74362.5,17.43,-2.55,2.31,0,*63
1499252713.11,18824,17.31,74362.0,17.45,-2.15,3.11,0,*65
1499252714.31,18825,17.38,74362.3,17.49,-1.17,4.15,0,*6A
1499252715.51,18826,17.38,74364.0,17.51,-0.37,5.29,0,*5D
1499252716.74,18827,17.38,74364.0,17.57,0.25,5.85,0,*72
1499252717.97,18828,17.31,74360.0,17.63,0.51,6.33,0,*77
1499252719.19,18829,17.38,74360.8,17.67,0.87,6.97,0,*77
1499252720.46,18830,17.38,74360.8,17.73,1.63,7.77,0,*4E
1499252721.72,18831,17.31,74362.5,17.77,2.55,8.93,0,*48
1499252722.95,18832,17.38,74362.5,17.85,3.37,9.63,0,*4D
1499252724.18,18833,17.38,74360.8,17.95,2.89,9.15,0,*48
1499252725.39,18834,17.38,74362.0,17.99,3.75,9.91,0,*4D
1499252726.59,18835,17.38,74362.3,18.03,4.67,10.89,0,*75
1499252727.79,18836,17.38,74360.5,18.09,5.37,11.47,0,*7B
1499252729.0,18837,17.38,74360.3,18.17,5.73,11.99,0,*76
1499252730.23,18838,17.38,74364.3,18.25,6.61,12.73,0,*7F
1499252731.41,18839,17.38,74366.5,18.29,5.07,11.17,0,*70
1499252732.61,18840,17.38,74360.3,18.33,3.97,9.99,0,*45
1499252733.85,18841,17.38,74366.5,18.37,3.67,9.67,0,*4E
1499252735.11,18842,17.38,74366.3,18.37,2.51,8.55,0,*49
1499252736.37,18843,17.38,74366.0,18.35,1.97,7.91,0,*44
1499252737.58,18844,17.38,74366.5,18.35,2.27,8.15,0,*48
1499252738.83,18845,17.31,74360.5,18.35,2.85,8.47,0,*46
1499252740.08,18846,17.38,74364.0,18.31,3.53,8.89,0,*49
1499252741.31,18847,17.38,74364.5,18.31,3.85,9.01,0,*42
1499252742.52,18848,17.38,74362.0,18.31,4.07,9.25,0,*46
1499252743.72,18849,17.31,74360.5,18.31,4.81,9.67,0,*4F
1499252744.97,18850,17.38,74362.5,18.31,4.79,9.61,0,*46
1499252746.24,18851,17.38,74360.3,18.35,6.43,11.03,0,*75
1499252747.48,18852,17.38,74362.5,18.37,6.13,10.43,0,*74
1499252748.7,18853,17.38,74364.5,18.37,5.55,9.29,0,*40
1499252749.95,18854,17.38,74366.5,18.35,3.67,7.47,0,*44
1499252751.18,18855,17.38,74362.8,18.31,4.31,7.97,0,*48
1499252752.38,18856,17.38,74360.3,18.27,3.55,7.05,0,*42
1499252753.64,18857,17.38,74366.3,18.23,1.93,5.27,0,*4D
1499252754.88,18858,17.38,74366.3,18.19,2.05,5.11,0,*42
1499252756.09,18859,17.38,74364.5,18.13,2.35,5.27,0,*4F
1499252757.31,18860,17.38,74366.0,18.05,3.41,6.11,0,*46
1499252758.51,18861,17.38,74364.8,18.03,4.07,6.57,0,*46
1499252759.76,18862,17.38,74364.3,17.97,4.01,6.39,0,*49
1499252760.99,18863,17.38,74364.3,17.95,4.01,6.17,0,*46
1499252762.17,18864,17.38,74364.8,17.87,4.19,6.21,0,*4E
1499252763.41,18865,17.38,74364.0,17.85,4.05,5.71,0,*46
1499252764.65,18866,17.38,74366.0,17.79,3.23,4.79,0,*4C
1499252765.91,18867,17.38,74364.5,17.73,2.09,3.53,0,*41
1499252767.11,18868,17.38,74366.3,17.67,3.59,4.89,0,*4F
1499252768.35,18869,17.38,74362.8,17.63,3.81,4.93,0,*44
1499252769.58,18870,17.38,74366.8,17.57,3.37,4.31,0,*4E
1499252770.82,18871,17.38,74366.5,17.51,3.75,4.57,0,*4F
1499252772.01,18872,17.31,74362.8,17.49,3.81,4.33,0,*4C
1499252773.22,18873,17.31,74362.8,17.41,3.75,4.23,0,*4F
1499252774.45,18874,17.38,74364.8,17.39,4.67,4.89,0,*43
1499252775.69,18875,17.38,74360.3,17.35,4.75,4.85,0,*41
1499252776.92,18876,17.38,74362.5,17.31,4.75,4.89,0,*4A
1499252778.12,18877,17.38,74364.3,17.29,5.51,5.45,0,*44
1499252779.35,18878,17.38,74362.5,17.27,5.77,5.59,0,*4C
1499252780.55,18879,17.38,74364.3,17.21,5.55,5.15,0,*43
1499252781.79,18880,17.38,74366.3,17.19,5.37,4.71,0,*49
1499252782.96,18881,17.38,74366.3,17.17,5.29,4.41,0,*4A
1499252784.14,18882,17.38,74366.8,17.13,5.15,3.93,0,*4A
1499252785.36,18883,17.38,74366.0,17.09,5.85,4.57,0,*46
1499252786.53,18884,17.38,74364.3,17.09,5.71,4.19,0,*40
1499252787.75,18885,17.38,74366.8,17.05,5.45,3.67,0,*44
1499252788.96,18886,17.38,74366.8,16.99,5.99,4.01,0,*45
1499252790.18,18887,17.38,74366.0,16.95,6.29,4.05,0,*44
1499252791.39,18888,17.38,74368.8,16.95,5.95,3.49,0,*40
1499252792.58,18889,17.38,74366.8,16.91,6.11,3.29,0,*4C
1499252793.81,18890,17.38,74366.3,16.91,5.73,2.47,0,*4A
1499252794.99,18891,17.38,74368.3,16.87,5.71,2.31,0,*4F
1499252796.21,18892,17.38,74370.0,16.85,5.19,1.43,0,*46
1499252797.44,18893,17.38,74368.0,16.81,5.29,1.25,0,*40
1499252798.66,18894,17.38,74370.8,16.77,5.45,1.09,0,*4A
1499252799.88,18895,17.38,74368.3,16.75,5.29,0.71,0,*7D
1499252801.1,18896,17.38,74366.8,16.73,5.55,0.71,0,*73
1499252802.29,18897,17.38,74370.3,16.69,5.07,-0.11,0,*55
1499252803.46,18898,17.38,74370.0,16.65,5.29,-0.07,0,*6D
1499252804.66,18899,17.38,74368.3,16.63,5.37,-0.29,0,*59
1499252805.86,18900,17.38,74372.5,16.61,5.15,-0.97,0,*5F
1499252807.11,18901,17.38,74368.8,16.59,4.63,-1.71,0,*6C
1499252808.35,18902,17.38,74368.5,16.55,4.31,-2.43,0,*66
1499252809.57,18903,17.38,74366.0,16.51,3.93,-3.03,0,*69
1499252810.79,18904,17.38,74370.5,16.49,3.33,-4.25,0,*6E
1499252812.04,18905,17.31,74366.5,16.43,2.39,-5.61,0,*6F
1499252813.29,18906,17.38,74370.3,16.39,2.81,-5.31,0,*67
1499252814.49,18907,17.38,74370.5,16.31,0.55,-8.55,0,*5A
1499252815.7,18908,17.38,74368.8,16.23,-0.23,-9.31,0,*79
1499252816.88,18909,17.38,74368.5,16.19,0.43,-8.75,0,*5B
1499252818.08,18910,17.38,74370.3,16.15,1.05,-8.21,0,*6D
1499252819.32,18911,17.38,74370.0,16.13,0.09,-9.53,0,*63
1499252820.57,18912,17.38,74366.5,16.05,0.29,-9.53,0,*55
1499252821.78,18913,17.38,74364.3,16.01,-0.19,-10.57,0,*42
1499252823.05,18914,17.38,74366.8,15.97,-1.09,-11.77,0,*7A
1499252824.26,18915,17.38,74368.0,15.93,-2.15,-13.19,0,*7B
1499252825.5,18916,17.38,74366.8,15.89,-2.27,-13.29,0,*71
1499252826.72,18917,17.38,74364.0,15.81,-2.43,-13.51,0,*75
1499252827.96,18918,17.38,74364.3,15.75,-2.83,-14.01,0,*7F
1499252829.21,18919,17.38,74364.5,15.75,-1.75,-12.71,0,*75
1499252830.4,18920,17.38,74366.8,15.73,-1.59,-12.39,0,*7B
1499252831.62,18921,17.38,74366.8,15.71,-2.95,-13.73,0,*74
1499252832.85,18922,17.38,74366.0,15.67,-3.95,-14.33,0,*72
1499252834.09,18923,17.38,74364.8,15.63,-3.51,-13.47,0,*7B
1499252835.31,18924,17.38,74360.8,15.61,-3.03,-12.61,0,*7C
1499252836.5,18925,17.38,74364.5,15.61,-4.29,-13.51,0,*70
1499252837.72,18926,17.38,74362.0,15.59,-4.49,-13.23,0,*7B
1499252838.92,18927,17.38,74364.3,15.57,-5.43,-13.73,0,*7A
1499252840.17,18928,17.38,74366.3,15.55,-6.43,-14.05,0,*72
1499252841.36,18929,17.38,74362.0,15.53,-6.47,-13.51,0,*77
1499252842.61,18930,17.38,74364.0,15.49,-5.77,-12.11,0,*71
1499252843.86,18931,17.38,74366.5,15.51,-4.85,-10.57,0,*75
1499252845.07,18932,17.31,74362.8,15.51,-0.69,-5.35,0,*70
1499252846.28,18933,17.38,74368.0,15.59,-0.29,-4.33,0,*7A
1499252847.52,18934,17.38,74366.3,15.63,-1.91,-5.97,0,*49
1499252848.71,18935,17.38,74366.3,15.69,-3.07,-6.81,0,*4B
1499252849.92,18936,17.38,74370.0,15.73,-3.55,-6.89,0,*4C
1499252851.16,18937,17.38,74368.8,15.75,-2.63,-5.43,0,*4A
1499252852.38,18938,17.38,74368.3,15.81,-2.15,-4.65,0,*4A
1499252853.64,18939,17.38,74368.0,15.85,-1.35,-3.59,0,*46
1499252854.84,18940,17.38,74368.0,15.93,-0.29,-2.31,0,*7C
1499252856.08,18941,17.38,74372.5,16.01,0.67,-0.93,0,*68
1499252857.31,18942,17.38,74374.5,16.11,1.13,-0.27,0,*57
1499252858.55,18943,17.38,74372.8,16.17,0.87,-0.41,0,*6C
1499252859.82,18944,17.38,74370.5,16.29,1.21,0.25,0,*74
1499252861.06,18945,17.38,74370.3,16.39,1.21,0.47,0,*70
1499252862.27,18946,17.38,74370.5,16.49,0.55,-0.07,0,*5F
1499252863.5,18947,17.38,74374.5,16.55,0.83,0.43,0,*45
1499252864.7,18948,17.38,74370.5,16.63,-0.29,-0.45,0,*49
1499252865.92,18949,17.38,74366.5,16.69,0.51,0.33,0,*4C
1499252867.13,18950,17.38,74374.8,16.77,-0.11,-0.03,0,*7C
1499252868.31,18951,17.38,74368.3,16.83,-0.45,-0.29,0,*4F
1499252869.54,18952,17.38,74368.5,16.89,-0.03,0.59,0,*5E
1499252870.79,18953,17.38,74370.3,16.97,0.71,1.43,0,*72
1499252872.01,18954,17.38,74366.5,17.07,-0.27,0.71,0,*63
1499252873.2,18955,17.38,74370.0,17.13,0.43,1.63,0,*7A
1499252874.39,18956,17.38,74370.3,17.21,0.01,1.51,0,*4F
1499252875.62,18957,17.38,74368.0,17.29,-0.23,1.59,0,*53
1499252876.84,18958,17.38,74368.8,17.37,-0.23,1.93,0,*55
1499252878.06,18959,17.38,74364.0,17.41,-1.17,1.47,0,*6A
1499252879.27,18960,17.38,74366.5,17.49,-1.75,1.21,0,*6C
1499252880.53,18961,17.38,74368.3,17.55,-1.87,1.63,0,*6B
1499252881.79,18962,17.38,74366.0,17.59,-1.91,2.01,0,*64
1499252883.02,18963,17.38,74366.3,17.67,-1.75,2.77,0,*63
1499252884.3,18964,17.38,74366.0,17.73,-1.43,3.41,0,*60
1499252885.5,18965,17.38,74368.3,17.75,-3.91,1.75,0,*6F
1499252886.74,18966,17.38,74368.0,17.81,-3.11,2.77,0,*6E
1499252887.92,18967,17.38,74366.3,17.83,-3.11,3.29,0,*67
1499252889.13,18968,17.38,74366.5,17.89,-4.53,2.27,0,*6C
1499252890.35,18969,17.38,74366.0,17.89,-4.81,2.31,0,*65
1499252891.56,18970,17.38,74368.3,17.89,-4.41,3.25,0,*65
1499252892.77,18971,17.38,74370.0,17.95,-3.87,3.97,0,*6D
1499252894.02,18972,17.38,74368.5,17.97,-3.03,5.01,0,*69
1499252895.24,18973,17.38,74370.0,17.99,-3.39,4.93,0,*65
1499252896.47,18974,17.38,74370.3,18.03,-2.71,5.89,0,*69
1499252897.66,18975,17.38,74370.5,18.05,-1.63,6.93,0,*66
1499252898.88,18976,17.38,74370.3,18.07,-4.05,4.85,0,*67
1499252900.08,18977,17.38,74366.3,18.07,-4.99,4.27,0,*6B
1499252901.34,18978,17.38,74368.3,18.07,-4.57,4.75,0,*61
1499252902.52,18979,17.38,74370.8,18.05,-4.99,4.53,0,*64
1499252903.73,18980,17.38,74370.0,18.05,-5.89,3.55,0,*63
1499252904.95,18981,17.38,74374.0,18.01,-6.35,3.25,0,*65
1499252906.21,18982,17.38,74370.0,17.97,-6.27,3.19,0,*6A
1499252907.45,18983,17.38,74370.3,17.89,-7.19,2.17,0,*67
1499252908.68,18984,17.38,74370.3,17.83,-6.19,2.85,0,*60